TimeCDT,TemperatureF,Dew PointF,Humidity,Sea Level PressureIn,VisibilityMPH,Wind Direction,Wind SpeedMPH,Gust SpeedMPH,PrecipitationIn,Events,Conditions,WindDirDegrees,DateUTC
12:52 AM,77.0,72.0,84,30.23,10.0,South,4.6,-,N/A,,Clear,170,2013-07-16 05:52:00
1:52 AM,75.9,72.0,87,30.22,10.0,SE,4.6,-,N/A,,Clear,140,2013-07-16 06:52:00
2:52 AM,75.0,72.0,90,30.22,9.0,Calm,Calm,-,N/A,,Clear,0,2013-07-16 07:52:00
3:52 AM,75.9,72.0,87,30.22,10.0,Calm,Calm,-,N/A,,Clear,0,2013-07-16 08:52:00
4:52 AM,73.0,70.0,90,30.23,8.0,ESE,4.6,-,N/A,,Clear,110,2013-07-16 09:52:00
5:52 AM,72.0,70.0,93,30.25,5.0,East,3.5,-,N/A,,Clear,100,2013-07-16 10:52:00
6:52 AM,75.0,72.0,90,30.27,7.0,Calm,Calm,-,N/A,,Clear,0,2013-07-16 11:52:00
7:52 AM,79.0,73.0,82,30.28,10.0,SSW,5.8,-,N/A,,Clear,200,2013-07-16 12:52:00
8:52 AM,82.0,73.9,76,30.28,10.0,South,4.6,-,N/A,,Clear,180,2013-07-16 13:52:00
9:52 AM,84.0,73.9,72,30.27,10.0,SW,4.6,-,N/A,,Scattered Clouds,220,2013-07-16 14:52:00
10:52 AM,84.9,73.0,67,30.28,10.0,SW,4.6,-,N/A,,Scattered Clouds,220,2013-07-16 15:52:00
11:52 AM,88.0,73.0,61,30.27,10.0,Variable,4.6,-,N/A,,Partly Cloudy,0,2013-07-16 16:52:00
12:52 PM,87.1,73.0,63,30.27,10.0,SSW,6.9,-,N/A,,Scattered Clouds,200,2013-07-16 17:52:00
1:52 PM,89.1,72.0,57,30.26,10.0,Calm,Calm,-,N/A,,Clear,0,2013-07-16 18:52:00
2:52 PM,91.0,73.9,57,30.25,10.0,South,5.8,-,N/A,,Scattered Clouds,190,2013-07-16 19:52:00
3:52 PM,90.0,73.0,57,30.24,10.0,SSW,5.8,-,N/A,,Partly Cloudy,210,2013-07-16 20:52:00
4:52 PM,89.1,73.9,61,30.23,10.0,SSE,6.9,-,N/A,,Scattered Clouds,150,2013-07-16 21:52:00
5:52 PM,89.1,72.0,57,30.23,10.0,SSW,4.6,-,N/A,,Clear,210,2013-07-16 22:52:00
6:52 PM,88.0,73.0,61,30.22,10.0,South,6.9,-,N/A,,Clear,170,2013-07-16 23:52:00
7:52 PM,86.0,75.0,70,30.23,10.0,SSE,5.8,-,N/A,,Scattered Clouds,160,2013-07-17 00:52:00
8:52 PM,81.0,73.9,79,30.24,10.0,SSE,5.8,-,N/A,,Clear,160,2013-07-17 01:52:00
9:52 PM,81.0,73.0,77,30.26,10.0,South,4.6,-,N/A,,Clear,170,2013-07-17 02:52:00
10:52 PM,79.0,72.0,79,30.26,10.0,South,4.6,-,N/A,,Clear,180,2013-07-17 03:52:00
11:52 PM,79.0,71.1,77,30.26,10.0,South,4.6,-,N/A,,Clear,180,2013-07-17 04:52:00